When you browse on this site, cookies collect data to enhance your experience and personalize the content and advertising you see.
Visit our Privacy Policy to learn more. By continuing to use the site, you agree to this use of cookies and data.
  • In Czech Republic
  • List of Countries
  • For 7 days
  • Water Temperature
  • Satellite Maps
  • Weather Map
  • Weather Widgets
  • user-avatar
    Login

    Hourly Weather Arvada

    Today, 15 December, Saturday

    Time Temperature Precipitation Wind Pressure Humidity
    00:00 +1°C° 0 mm 3 mps 624 mmHg 36%
    01:00 +1°C° 0 mm 3 mps 624 mmHg 36%
    02:00 +1°C° 0 mm 3 mps 623 mmHg 35%
    03:00 +1°C° 0 mm 3 mps 623 mmHg 33%
    04:00 +2°C° 0 mm 3 mps 623 mmHg 32%
    05:00 +2°C° 0 mm 3 mps 623 mmHg 31%
    06:00 +2°C° 0 mm 3 mps 623 mmHg 30%
    07:00 +3°C° 0 mm 3 mps 624 mmHg 29%
    08:00 +3°C° 0 mm 3 mps 624 mmHg 28%
    09:00 +6°C° 0 mm 2 mps 624 mmHg 27%
    10:00 +8°C° 0 mm 2 mps 624 mmHg 26%
    11:00 +10°C° 0 mm 2 mps 624 mmHg 25%
    12:00 +10°C° 0 mm 2 mps 624 mmHg 26%
    13:00 +12°C° 0 mm 2 mps 625 mmHg 27%
    14:00 +12°C° 0 mm 1 mps 625 mmHg 28%
    15:00 +9°C° 0 mm 2 mps 624 mmHg 32%
    16:00 +7°C° 0 mm 2 mps 624 mmHg 36%
    17:00 +5°C° 0 mm 2 mps 624 mmHg 40%
    18:00 +5°C° 0 mm 2 mps 624 mmHg 42%
    19:00 +4°C° 0 mm 3 mps 625 mmHg 44%
    20:00 +3°C° 0 mm 3 mps 625 mmHg 46%
    21:00 +3°C° 0 mm 3 mps 625 mmHg 47%
    22:00 +2°C° 0 mm 3 mps 626 mmHg 49%
    23:00 +2°C° 0 mm 3 mps 626 mmHg 50%

    Tomorrow, 16 December, Sunday

    Time Temperature Precipitation Wind Pressure Humidity
    00:00 +2°C° 0 mm 3 mps 626 mmHg 49%
    01:00 +1°C° 0 mm 3 mps 626 mmHg 49%
    02:00 +2°C° 0 mm 2 mps 626 mmHg 49%
    03:00 +2°C° 0 mm 2 mps 626 mmHg 49%
    04:00 +2°C° 0 mm 2 mps 626 mmHg 49%
    05:00 +1°C° 0 mm 2 mps 626 mmHg 49%
    06:00 +2°C° 0 mm 2 mps 626 mmHg 46%
    07:00 +2°C° 0 mm 2 mps 626 mmHg 42%
    08:00 +2°C° 0 mm 2 mps 627 mmHg 39%
    09:00 +6°C° 0 mm 1 mps 627 mmHg 33%
    10:00 +9°C° 0 mm 1 mps 628 mmHg 28%
    11:00 +11°C° 0 mm 1 mps 629 mmHg 22%
    12:00 +12°C° 0 mm 1 mps 628 mmHg 22%
    13:00 +13°C° 0 mm 1 mps 628 mmHg 21%
    14:00 +14°C° 0 mm 2 mps 627 mmHg 21%
    15:00 +10°C° 0 mm 2 mps 627 mmHg 27%
    16:00 +8°C° 0 mm 2 mps 626 mmHg 34%
    17:00 +5°C° 0 mm 2 mps 625 mmHg 40%
    18:00 +5°C° 0 mm 2 mps 625 mmHg 41%
    19:00 +4°C° 0 mm 2 mps 625 mmHg 42%
    20:00 +4°C° 0 mm 2 mps 625 mmHg 43%
    21:00 +3°C° 0 mm 2 mps 625 mmHg 43%
    22:00 +3°C° 0 mm 2 mps 625 mmHg 44%
    23:00 +3°C° 0 mm 2 mps 625 mmHg 44%

    Day after tomorrow, 17 December, Monday

    Time Temperature Precipitation Wind Pressure Humidity
    00:00 +2°C° 0 mm 2 mps 625 mmHg 43%
    01:00 +2°C° 0 mm 2 mps 624 mmHg 42%
    02:00 +2°C° 0 mm 2 mps 624 mmHg 42%
    03:00 +2°C° 0 mm 2 mps 624 mmHg 41%
    04:00 +1°C° 0 mm 2 mps 623 mmHg 40%
    05:00 +1°C° 0 mm 2 mps 623 mmHg 39%
    06:00 +2°C° 0 mm 2 mps 623 mmHg 36%
    07:00 +2°C° 0 mm 2 mps 623 mmHg 33%
    08:00 +2°C° 0 mm 2 mps 623 mmHg 31%
    09:00 +5°C° 0 mm 2 mps 623 mmHg 27%
    10:00 +8°C° 0 mm 1 mps 623 mmHg 24%
    11:00 +11°C° 0 mm 1 mps 624 mmHg 20%
    12:00 +11°C° 0 mm 1 mps 623 mmHg 20%
    13:00 +12°C° 0 mm 1 mps 622 mmHg 21%
    14:00 +12°C° 0 mm 1 mps 622 mmHg 21%
    15:00 +10°C° 0 mm 1 mps 621 mmHg 26%
    16:00 +8°C° 0 mm 1 mps 621 mmHg 31%
    17:00 +6°C° 0 mm 1 mps 620 mmHg 37%
    18:00 +6°C° 0 mm 1 mps 620 mmHg 38%
    19:00 +6°C° 0 mm 1 mps 621 mmHg 39%
    20:00 +6°C° 0 mm 1 mps 621 mmHg 40%
    21:00 +5°C° 0 mm 2 mps 621 mmHg 41%
    22:00 +4°C° 0 mm 2 mps 621 mmHg 43%
    23:00 +4°C° 0 mm 2 mps 621 mmHg 44%

    18 December, Tuesday

    Time Temperature Precipitation Wind Pressure Humidity
    00:00 +4°C° 0 mm 2 mps 621 mmHg 47%
    01:00 +3°C° 0 mm 2 mps 621 mmHg 50%
    02:00 +3°C° 0 mm 2 mps 621 mmHg 53%
    03:00 +2°C° 0 mm 2 mps 621 mmHg 53%
    04:00 +2°C° 0 mm 2 mps 621 mmHg 54%
    05:00 +2°C° 0 mm 2 mps 621 mmHg 55%
    06:00 +2°C° 0 mm 2 mps 621 mmHg 55%
    07:00 +2°C° 0 mm 2 mps 622 mmHg 55%
    08:00 +2°C° 0 mm 2 mps 622 mmHg 54%
    09:00 +4°C° 0 mm 2 mps 623 mmHg 48%
    10:00 +6°C° 0 mm 2 mps 623 mmHg 42%
    11:00 +8°C° 0 mm 2 mps 623 mmHg 36%
    12:00 +9°C° 0 mm 2 mps 623 mmHg 35%
    13:00 +9°C° 0 mm 2 mps 622 mmHg 34%
    14:00 +10°C° 0 mm 3 mps 622 mmHg 33%
    15:00 +8°C° 0 mm 2 mps 622 mmHg 38%
    16:00 +6°C° 0 mm 2 mps 621 mmHg 43%
    17:00 +4°C° 0 mm 2 mps 621 mmHg 48%
    18:00 +3°C° 0 mm 3 mps 622 mmHg 48%
    19:00 +3°C° 0 mm 3 mps 622 mmHg 49%
    20:00 +2°C° 0 mm 3 mps 622 mmHg 49%
    21:00 +2°C° 0 mm 3 mps 622 mmHg 50%
    22:00 +2°C° 0 mm 3 mps 622 mmHg 50%
    23:00 +2°C° 0 mm 3 mps 623 mmHg 51%

    19 December, Wednesday

    Time Temperature Precipitation Wind Pressure Humidity
    00:00 +2°C° 0 mm 3 mps 622 mmHg 53%
    01:00 +1°C° 0 mm 4 mps 622 mmHg 54%
    02:00 +1°C° 0 mm 4 mps 622 mmHg 56%
    03:00 +1°C° 0 mm 4 mps 622 mmHg 57%
    04:00 0°C° 0 mm 4 mps 622 mmHg 59%
    05:00 0°C° 0 mm 4 mps 622 mmHg 60%
    06:00 +1°C° 0 mm 4 mps 622 mmHg 58%
    07:00 +1°C° 0 mm 4 mps 622 mmHg 56%
    08:00 +3°C° 0 mm 4 mps 623 mmHg 53%
    09:00 +4°C° 0 mm 6 mps 623 mmHg 47%
    10:00 +6°C° 0 mm 7 mps 623 mmHg 41%
    11:00 +10°C° 0 mm 9 mps 624 mmHg 35%
    12:00 +9°C° 0 mm 10 mps 623 mmHg 34%
    13:00 +9°C° 0 mm 11 mps 623 mmHg 34%
    14:00 +9°C° 0 mm 12 mps 622 mmHg 34%
    15:00 +7°C° 0 mm 11 mps 622 mmHg 37%
    16:00 +6°C° 0 mm 9 mps 622 mmHg 40%
    17:00 +5°C° 0 mm 7 mps 622 mmHg 43%
    18:00 +4°C° 0 mm 7 mps 623 mmHg 46%
    19:00 +3°C° 0 mm 6 mps 623 mmHg 48%
    20:00 +2°C° 0 mm 5 mps 624 mmHg 50%
    21:00 +1°C° 0 mm 5 mps 624 mmHg 52%
    22:00 +1°C° 0 mm 4 mps 624 mmHg 53%
    23:00 +1°C° 0 mm 4 mps 624 mmHg 54%

    20 December, Thursday

    Time Temperature Precipitation Wind Pressure Humidity
    00:00 0°C° 0 mm 4 mps 624 mmHg 55%
    01:00 0°C° 0 mm 4 mps 624 mmHg 55%
    02:00 +1°C° 0 mm 3 mps 624 mmHg 56%
    03:00 +1°C° 0 mm 3 mps 624 mmHg 57%
    04:00 +1°C° 0 mm 3 mps 624 mmHg 57%
    05:00 0°C° 0 mm 4 mps 624 mmHg 58%
    06:00 +1°C° 0 mm 3 mps 625 mmHg 57%
    07:00 +1°C° 0 mm 3 mps 625 mmHg 57%
    08:00 +1°C° 0 mm 3 mps 625 mmHg 57%
    09:00 +3°C° 0 mm 3 mps 626 mmHg 51%
    10:00 +7°C° 0 mm 3 mps 626 mmHg 45%
    11:00 +9°C° 0 mm 3 mps 626 mmHg 38%
    12:00 +9°C° 0 mm 3 mps 626 mmHg 38%
    13:00 +10°C° 0 mm 3 mps 625 mmHg 37%
    14:00 +10°C° 0 mm 3 mps 625 mmHg 37%
    15:00 +9°C° 0 mm 3 mps 625 mmHg 42%
    16:00 +7°C° 0 mm 3 mps 624 mmHg 48%
    17:00 +4°C° 0 mm 3 mps 624 mmHg 53%
    18:00 +4°C° 0 mm 3 mps 624 mmHg 54%
    19:00 +3°C° 0 mm 3 mps 624 mmHg 54%
    20:00 +3°C° 0 mm 3 mps 624 mmHg 54%
    21:00 +3°C° 0 mm 3 mps 623 mmHg 53%
    22:00 +2°C° 0 mm 3 mps 623 mmHg 51%
    23:00 +2°C° 0 mm 3 mps 623 mmHg 50%
    Show more